Back to catalog

SDA_1675

AliveMilitaryPO
NORAD 65985·PAYLOAD·🇺🇸 United States

Launched Oct 15, 2025 from Vandenberg Space Force Base

Loading…

Next Passes (next 24 hours)

TLE

FreshSource: Space-Track

Epoch: Sep 14, 2026, 14:32 UTC

1 65985U 25230M   26257.60563261  .00000138  00000-0  11236-3 0  9994
2 65985  81.2973 128.7797 0002065 292.5884  67.5055 13.84769451 46182

Track SDA_1675 in real time with AllMySat

Download on the App Store